User: anonymous   Login
Location: Hale Hill Observatory
(39.3806°N, 86.8431°W)
Time: 12:23:10
(UTC-05:00)
Language:

Cosmos 990 Rocket - Orbit

View from above orbital plane
View from above orbital plane
View from above satellite
View from above satellite

Ground track
Ground track

The orbit data is extracted from the following two-line orbital elements,

1 10677U 78019B   14351.12322851  .00000165  00000-0  60943-4 0  5820
2 10677 074.0360 188.1234 0014384 128.8940 231.3500 14.39752563931071
Epoch (UTC): 17 December 2014 02:57:26
Eccentricity: 0.0014384
inclination: 74.0360°
perigee height: 749 km
apogee height: 769 km
right ascension of ascending node: 188.1234°
argument of perigee: 128.8940°
revolutions per day: 14.39752563
mean anomaly at epoch: 231.3500°
orbit number at epoch: 93107

The dashed part of the orbit path shows where the satellite is in the earth's shadow,  

DLR